COSMOS 2251 DEB

Satellite information

Favourite Embed

Satellite Type and Status

DEBRISIN ORBIT

Key statistics

Satellite COSMOS 2251 DEB at a glance.

Uptime

11709

Days in orbit

Revolutions

≈ 13.7

Per day

Orbit

LEO

Low Earth Orbit

Inclination

74.1

Latest

Satellite identification and parameters

Extended collection of information and parameters for COSMOS 2251 DEB.

Object identification

Identified? True

Debris? True

Object name: COSMOS 2251 DEB

International designator: 1993-036DV

Object number (NORAD): 33916

Object ID (CCSDS): 33916

Country: COMMONWEALTH OF INDEPENDENT STATES (CIS)

Current information (Y/N): Y

RCS size: MEDIUM

Orbital parameters

Period: 105.233 minutes

Inclination: 74.0529 deg

SMA: 7383.494 km

Apoapsis: 1245.056 km

Periapsis: 765.662 km

RAAN: 302.3444 deg

Eccentricy: 0.0324639

Argument of periapsis: 149.3962 deg

Mean anomaly: 271.4614 deg

Mean motion: 13.68389946 rev/day

Mean motion (dot): 0.00000453 rev/day2

B* drag term: 0.00038347 1/REarth

Two-line elements (TLE)

Creation date: July 6, 2025, 6:05 p.m.

Reference frame: TEME

Reference center: EARTH

Epoch: July 6, 2025, 9:14 a.m. UTC

TLE line 0: 0 COSMOS 2251 DEB

TLE line 1: 1 33916U 93036DV 25187.38512051 .00000453 00000-0 38347-3 0 9991

TLE line 2: 2 33916 74.0529 302.3444 0324639 149.3962 271.4614 13.68389946817112

Live tracking on map

Real-time ground track for satellite COSMOS 2251 DEB.

In-orbit conjunctions

A list of the most updated potential collisions computed for object COSMOS 2251 DEB.

Target Orbit TCA Probability of collision Miss distance Type
CZ-2D R/B LEO 2024-10-20 21:31:25 0.0001616818 445.0 (m) ROCKET BODY
COSMOS 2251 DEB LEO 2024-09-17 14:51:22 0.0001371664 112.0 (m) DEBRIS

Associated space launch

Military communications satellite. Destroyed in a collision with Iridium 33.

COSMOS 2251 DEB was lifted into orbit during the mission ‘Kosmos-3M | Strela-2M 51’, on board a Kosmos-3M space rocket.

The launch took place on June 16, 1993, 4:17 a.m. from 132/1 (132L).

For more information about the launch, click the button.

Launch to space Kosmos-3M | Strela-2M 51
Kosmos-3M | Strela-2M 51

Agency: N/A

Status: Launch Successful

Launch date: June 16, 1993, 4:17 a.m. UTC

Rocket: Kosmos-3M

Launch pad: 132/1 (132L)

Location: Plesetsk Cosmodrome, Russian Federation

...

Latest news about this satellite

There are no fresh news available about this satellite. Check back as we update our databases every day.


Newsletter sign-up

Weekly statistics, charts and insights to help you stay on top of the space industry.